Home   Weather   The Settlement   Past weeks

Flag for Christmas Island Past Weather in The Settlement, Christmas Island — Yesterday and Last 2 Weeks

Now
73 °F

Clear.


Feels Like: 73 °F
Forecast: 70 / 80 °F
Wind: 3 mph from West

Location: Christmas Island Aerodrome

Current Time: Jan 17, 2017 at 8:08:03 pm

Latest Report: Jan 17, 2017 at 7:30 pm


Visibility: N/A

Pressure: 29.89 "Hg

Humidity: 83%

Dew Point: 68 °F

Location of The SettlementLocation

Past Weather in The Settlement — Graph

°F

The Settlement Temperature Yesterday

Maximum temperature yesterday: 82 °F (at 11:00 am)
Minimum temperature yesterday: 72 °F (at 8:00 pm)
Average temperature yesterday: 76 °F

High & Low Weather Summary for the Past Weeks

 TemperatureHumidityPressure
High84 °F (Jan 5, 11:00 am)100% (Jan 2, 6:30 pm)29.89 "Hg (Jan 2, 6:30 pm)
Low68 °F (Jan 17, 6:00 am)62% (Jan 17, 10:00 am)29.65 "Hg (Jan 9, 3:00 pm)
Average77 °F87%29.79 "Hg
* Reported Jan 2 6:30 pm — Jan 17 6:30 pm, The Settlement, Weather by CustomWeather, © 2017

Note: Actual official high and low records may vary slightly from our data, if they occured in-between our weather recording intervals... More about our weather records

Advertising

The Settlement Weather History for the Previous 24 Hours

Scroll right to see more
 ConditionsComfort  
Time TempWeatherWind HumidityBarometerVisibility
6:30 pm
Tue, Jan 17
77 °FClear.3 mph74%29.86 "HgN/A
6:00 pm77 °FSunny.5 mph74%29.86 "HgN/A
5:30 pm79 °FScattered clouds.5 mph70%29.83 "HgN/A
5:00 pm79 °FScattered clouds.5 mph70%29.83 "HgN/A
4:30 pm81 °FScattered clouds.6 mph66%29.83 "HgN/A
4:00 pm79 °FBroken clouds.6 mph70%29.83 "HgN/A
3:30 pm81 °FScattered clouds.7 mph66%29.83 "HgN/A
3:00 pm81 °FSunny.7 mph66%29.83 "HgN/A
2:30 pm82 °FSunny.7 mph62%29.83 "HgN/A
2:00 pm82 °FSunny.7 mph62%29.83 "HgN/A
1:30 pm82 °FBroken clouds.7 mph62%29.83 "HgN/A
1:00 pm81 °FOvercast.5 mph66%29.83 "HgN/A
12:30 pm79 °FOvercast.5 mph70%29.86 "HgN/A
12:00 pm81 °FOvercast.5 mph66%29.86 "HgN/A
11:30 am81 °FMostly cloudy.7 mph66%29.86 "HgN/A
11:00 am81 °FPartly sunny.7 mph66%29.86 "HgN/A
10:30 am81 °FPartly sunny.6 mph66%29.86 "HgN/A
10:00 am81 °FBroken clouds.3 mph62%29.86 "HgN/A
9:30 am79 °FBroken clouds.5 mph70%29.89 "HgN/A
9:00 am79 °FScattered clouds.5 mph70%29.89 "HgN/A
8:30 am79 °FScattered clouds.6 mph70%29.86 "HgN/A
8:00 am79 °FScattered clouds.6 mph70%29.86 "HgN/A
7:00 am73 °FSunny.3 mph89%29.86 "HgN/A
6:30 am70 °FSunny.3 mph94%29.86 "HgN/A
6:00 am68 °FSunny.3 mph100%29.83 "HgN/A
5:30 am70 °FClear.5 mph88%29.83 "HgN/A
5:00 am70 °FClear.5 mph88%29.83 "HgN/A
4:30 am70 °FClear.5 mph94%29.83 "HgN/A
4:00 am70 °FClear.5 mph94%29.83 "HgN/A
3:30 am70 °FClear.5 mph94%29.83 "HgN/A
3:00 am70 °FClear.5 mph94%29.83 "HgN/A
2:30 am70 °FClear.3 mph94%29.83 "HgN/A
2:00 am70 °FClear.5 mph94%29.83 "HgN/A
1:30 am70 °FClear.5 mph94%29.83 "HgN/A
1:00 am70 °FClear.5 mph94%29.83 "HgN/A
12:30 am70 °FClear.5 mph94%29.83 "HgN/A
12:00 am72 °FClear.5 mph88%29.86 "HgN/A
11:30 pm
Mon, Jan 16
72 °FClear.5 mph88%29.86 "HgN/A
11:00 pm72 °FClear.3 mph88%29.86 "HgN/A
10:30 pm72 °FClear.3 mph88%29.86 "HgN/A
10:00 pm72 °FPassing clouds.3 mph88%29.86 "HgN/A
9:30 pm72 °FClear.3 mph88%29.86 "HgN/A
9:00 pm72 °FClear.3 mph94%29.86 "HgN/A
8:30 pm72 °FClear.3 mph94%29.86 "HgN/A
8:00 pm72 °FClear.3 mph94%29.86 "HgN/A
Weather by CustomWeather, © 2017

See weather overviewHow to use our weather pages